{"data":{"norad_id":59280,"epoch":"2026-05-25T03:36:02.541888Z","epoch_age_seconds":61786,"freshness":"FRESH","line1":"1 59280U 24052A   26145.15002942 -.00000034  00000+0  51127-4 0  9995","line2":"2 59280  50.0065 180.3297 0011367  64.6766 295.5325 14.27950811 94939","mean_motion":14.27950811,"eccentricity":0.0011367,"inclination_deg":50.0065,"raan_deg":180.3297,"arg_perigee_deg":64.6766,"mean_anomaly_deg":295.5325,"bstar":5.1127e-5,"rev_number":9493,"period_min":100.84380980824,"perigee_km":790.43084244689,"apogee_km":806.7464104861,"semimajor_km":7176.7256264665,"source":"CELESTRAK","updated_at":"2026-05-25T13:38:01.312309Z"}}